Resourcesat

operational
NORAD ID: 28051 Int'l Des: 2003-046 Owner: ISRO Country: IN
LEOCIRCULARRETROGRADESSO
追跡 地上

Resourcesatについて

説明を読み込み中...

リアルタイム位置

3D地球を読み込み中...

次回通過

高度履歴

Altitude vs Time

uPlot chart will show altitude changes over time

軌道要素

1 28051U 03046A 26072.64785339 .00000436 00000-0 16029-3 0 9995
2 28051 98.2042 113.7883 0062880 269.0366 197.7657 14.36120751166814
Epoch: Mar 13, 2026 • Age: 34 hours

現在のステータス

高度 813.3 km
速度 7.43 km/s
衛星直下点 51.38°N, 17.81°W
打ち上げ日 Oct 17, 2003
運用期間 22.4 years
タイプ other

技術仕様

分類 Payload
質量 1360.00 kg
乾燥質量 1300.00 kg
総質量 1360.00 kg
長さ 2.80 m
直径 2.00 m
スパン 12.00 m
形状 Box + 2 Pan
製造者 ISAC/HAL
バスタイプ IRS
フェーズステータス In Orbit
所有者/国 ISRO/IN

大規模コンステレーション

Loading constellations...